Lapse_Rate
2.9 2.7 2.9 2.7 2.7 3.2 3.1 3.6 3.6 3.9 3.7 4.3 3.9 3.4 3.4 3.5 4.4 5.3 5.7 5.7 5.9 6.1 6.2 6.6 6.6 6.7 6.6 6.3 6.1 5.3 5.4 5.6 5.8 6.7 6.1 6.2 6.2 6.3 6.1 5.7 5.8 5.9 6.0 5.5
3.6 2.8 2.6 2.7 3.0 3.0 3.6 3.4 3.7 3.9 3.9 3.0 3.7 3.4 3.7 3.7 3.9 4.7 5.2 5.5 5.7 5.9 6.1 6.1 6.3 6.7 6.5 6.3 6.2 5.8 5.8 6.1 6.3 6.7 6.7 6.3 5.9 6.3 6.6 6.0 5.7 5.3 5.3 5.6
4.1 4.3 3.8 3.2 2.9 3.1 3.4 3.0 3.5 3.6 3.9 3.7 3.1 3.4 3.5 3.8 4.0 4.7 5.2 5.4 5.5 5.6 5.8 6.2 6.3 6.1 6.3 6.3 6.2 6.1 6.0 6.0 5.8 5.8 6.2 6.1 5.9 6.1 6.3 6.1 5.5 5.9 5.4 5.4
3.1 3.5 3.7 3.7 3.3 2.9 2.9 3.0 2.9 3.4 3.7 3.8 3.7 3.8 3.8 3.7 3.6 4.2 4.9 5.1 5.2 5.3 5.4 5.7 5.8 6.3 6.4 6.3 6.1 6.1 6.0 5.9 5.9 6.1 6.2 6.5 6.5 5.8 6.0 5.8 5.6 5.5 5.3 5.1
3.6 3.4 2.9 3.2 3.5 3.6 3.3 3.0 3.2 3.2 3.6 3.8 3.7 3.6 4.0 4.0 3.9 4.0 3.8 4.1 5.0 5.3 5.2 5.4 5.6 6.2 6.2 6.2 6.0 6.1 6.2 5.8 6.0 6.2 6.3 6.3 6.2 5.7 5.6 5.8 5.7 5.6 5.2 5.0
3.8 3.6 3.9 3.7 3.4 3.5 3.6 3.6 3.2 3.4 3.1 3.5 3.8 3.3 3.5 4.0 4.1 4.1 4.0 4.1 4.0 4.6 5.6 6.0 6.2 6.1 6.1 6.2 6.2 6.1 6.0 5.9 5.9 6.2 6.3 6.4 6.2 5.5 5.7 5.4 5.7 5.8 5.4 5.0
3.5 3.3 3.4 4.0 3.8 3.6 3.8 4.0 3.8 3.5 3.1 3.3 3.3 3.7 3.5 3.6 4.0 4.0 4.0 3.9 4.1 4.4 4.9 5.5 6.0 6.1 6.0 6.1 6.0 5.9 5.8 5.7 5.9 6.1 6.6 5.6 5.7 5.7 5.6 5.2 5.3 5.6 5.9 5.3
4.2 3.8 3.7 3.5 4.2 3.7 3.8 3.8 4.1 4.0 3.5 3.0 3.1 3.2 3.6 3.7 3.7 3.8 3.9 3.8 4.0 4.1 4.3 4.8 5.0 5.3 5.6 5.9 6.0 6.0 5.9 5.7 5.8 6.1 6.4 6.1 5.8 5.9 5.5 5.5 5.7 5.5 5.4 5.3
4.5 4.5 4.2 3.9 3.9 4.2 4.2 3.8 3.7 4.0 3.9 3.7 3.0 3.1 3.1 3.4 3.6 3.7 4.0 3.9 3.8 3.9 4.2 4.0 3.7 4.6 4.8 5.2 5.4 5.9 5.9 5.7 5.7 6.0 6.2 6.0 6.1 6.1 6.0 5.9 5.6 5.7 5.8 5.8
4.7 4.4 4.5 4.1 3.9 3.8 4.1 4.3 3.8 3.8 4.0 3.9 3.8 3.4 3.1 3.1 3.3 3.6 3.8 3.8 3.7 3.7 3.2 2.9 3.6 4.1 4.3 4.5 4.8 5.2 5.3 5.7 5.7 5.9 6.0 6.2 6.3 6.2 6.1 5.9 6.1 6.2 6.0 6.1
4.9 4.6 4.4 4.2 3.9 4.1 4.1 4.5 4.3 3.8 3.8 4.0 4.0 3.9 3.6 3.1 2.9 3.1 3.7 3.4 3.6 3.5 3.3 3.2 3.5 3.6 3.9 4.1 4.3 4.7 4.7 4.8 5.2 5.5 5.8 5.6 6.3 6.4 6.3 6.4 6.3 6.3 6.2 6.2
4.6 4.7 4.6 4.5 4.4 4.1 4.2 4.3 4.5 4.8 4.3 3.9 4.1 4.0 4.0 3.6 3.0 2.9 3.2 3.6 3.3 3.4 3.1 2.9 3.1 3.4 3.4 3.8 4.1 4.4 4.6 4.9 4.8 4.9 5.4 5.7 6.0 6.3 6.3 6.1 5.9 6.0 6.0 6.1
4.4 4.5 4.7 4.5 4.5 4.6 4.3 4.3 4.2 4.5 5.0 4.8 4.3 4.4 4.3 4.1 3.6 3.3 3.1 3.2 3.3 3.1 3.0 3.0 3.0 3.2 3.2 3.3 3.6 3.7 4.4 4.4 4.5 4.9 5.0 5.0 5.2 5.4 5.6 5.7 5.5 5.3 5.2 4.9
4.5 4.7 4.7 4.8 4.9 4.8 4.6 4.4 4.5 4.3 4.5 4.8 4.7 4.4 4.4 4.3 4.0 3.7 3.4 3.2 3.2 3.2 2.9 2.9 3.0 3.1 3.3 3.5 3.7 3.9 4.0 4.2 4.4 4.6 4.6 4.7 4.8 4.7 4.6 4.8 4.9 4.8 4.7 4.6
4.3 4.7 4.8 4.7 4.8 4.6 4.7 4.7 4.6 4.4 4.3 4.5 5.0 4.8 4.7 4.5 4.4 4.0 3.8 3.6 3.1 3.1 3.1 2.9 3.0 3.1 3.2 3.5 3.7 5.0 5.1 5.1 4.6 4.7 4.6 4.4 4.5 4.4 4.3 4.2 4.1 4.2 4.2 4.2
4.6 4.8 4.9 4.9 4.8 4.7 4.5 4.6 4.9 4.6 4.3 4.0 4.3 5.0 5.0 4.8 4.6 4.6 4.1 3.8 3.6 3.1 3.2 3.2 3.0 3.2 2.9 3.1 3.9 5.5 5.5 5.4 5.2 5.2 4.7 4.6 4.4 4.4 4.3 4.1 4.1 4.0 3.9 3.8
4.5 4.7 5.0 5.1 5.0 4.8 4.6 4.5 4.5 4.3 4.6 4.1 4.1 4.7 5.4 5.4 5.4 5.2 4.6 4.1 3.8 3.4 3.1 3.4 3.4 3.5 2.9 3.1 4.7 6.0 5.2 5.2 5.4 5.2 4.9 4.8 4.7 4.5 4.3 4.3 4.1 4.0 3.9 3.8
4.7 4.7 4.8 5.0 5.0 4.7 5.2 4.6 4.0 3.8 4.1 4.1 4.1 4.5 5.2 5.6 5.5 5.6 5.0 4.4 3.9 3.6 3.3 3.6 3.7 3.6 3.6 4.2 6.1 6.0 5.8 5.4 5.6 5.4 5.3 5.1 5.0 4.7 4.6 4.5 4.4 4.3 4.2 3.9
4.7 4.7 4.8 4.8 5.0 5.2 5.2 4.4 4.2 3.5 3.7 3.8 3.9 4.4 4.8 5.2 5.6 5.4 5.1 4.4 4.2 3.5 3.5 3.9 3.3 3.6 4.4 6.0 6.0 6.1 6.0 6.0 5.8 5.5 5.4 5.4 5.3 5.1 5.0 4.8 4.6 4.6 4.4 4.2
4.7 4.6 4.5 4.4 5.0 4.9 4.5 4.0 4.0 3.8 3.8 3.6 4.2 4.3 4.6 5.1 5.4 5.4 5.0 4.2 4.3 3.6 3.9 3.7 3.6 5.2 6.5 6.1 6.1 5.8 6.0 6.0 5.9 6.0 5.7 5.6 5.5 5.3 5.2 5.0 4.8 4.7 4.5 4.4
4.5 4.3 4.3 4.3 4.4 4.2 3.7 3.8 3.5 3.8 3.8 4.4 5.2 5.1 5.2 5.3 5.0 5.2 5.1 4.4 4.3 3.8 3.9 3.5 3.7 6.3 7.0 6.2 6.5 6.5 6.3 6.0 6.0 5.8 5.6 5.6 5.6 5.5 5.3 5.1 4.9 4.8 4.6 4.5
4.1 3.8 3.6 3.7 3.7 3.3 3.1 2.7 3.3 3.9 4.7 5.2 6.0 6.3 6.9 6.2 6.0 5.6 5.4 4.5 4.8 4.8 3.5 3.4 4.1 6.4 6.8 6.4 6.9 7.1 6.7 6.6 6.1 5.8 5.6 5.5 5.5 5.3 5.2 5.0 4.9 4.8 4.6 4.4
3.5 2.9 2.7 3.0 3.1 3.2 2.4 2.5 3.8 5.4 5.6 6.2 6.2 6.4 6.6 6.2 5.8 5.5 5.6 4.9 5.1 4.5 4.0 4.0 4.5 6.1 6.9 6.6 6.5 6.6 6.8 6.7 6.3 6.0 5.4 5.3 5.3 5.2 5.1 4.9 4.8 4.6 4.5 4.4
2.7 2.5 2.3 3.1 3.4 2.7 4.0 5.7 5.8 6.0 6.0 6.1 6.1 6.3 6.5 6.5 5.9 5.4 5.3 5.2 5.1 4.1 3.6 4.2 5.0 5.9 6.5 6.9 6.7 6.3 6.5 6.5 6.5 6.1 5.5 5.1 5.0 4.9 4.9 4.8 4.7 4.5 4.4 4.4
2.9 2.6 2.7 2.9 3.3 4.0 5.1 5.2 5.7 6.2 6.2 6.3 6.2 6.3 6.5 6.4 6.0 5.6 5.5 5.0 4.7 4.1 4.7 5.3 5.5 5.8 6.3 6.5 7.1 6.4 6.3 6.2 6.1 5.9 5.4 5.2 5.0 4.9 4.8 4.8 4.6 4.5 4.3 4.2
2.5 2.0 3.0 3.6 4.0 4.5 4.8 5.1 5.6 5.9 6.0 6.1 6.0 6.2 6.1 5.9 6.3 5.9 5.5 5.2 4.7 5.6 6.4 6.7 6.6 6.1 6.2 6.4 6.1 6.5 6.1 6.1 5.9 5.6 5.3 5.1 5.0 4.8 4.8 4.7 4.5 4.4 4.2 4.1
2.1 2.2 3.3 3.6 4.2 4.7 5.0 5.4 5.7 5.7 5.8 6.3 6.2 5.6 6.0 6.6 5.8 5.7 5.5 5.1 5.7 6.4 7.2 7.3 6.8 6.5 6.4 6.2 6.1 6.1 6.2 6.0 5.8 5.6 5.3 4.9 4.8 4.8 4.6 4.5 4.3 4.2 4.2 4.0
Wind_Speed
18 14 18 17 12 22 6 2 1 3 6 1 2 3 3 1 4 1 2 2 2 3 4 1 2 2 4 4 6 6 5 3 5 4 6 4 2 6 6 3 7 4 1 4
24 26 14 9 15 17 3 2 2 3 3 1 3 5 7 5 3 5 2 3 2 3 3 1 1 5 3 2 4 5 5 4 5 4 2 2 6 12 15 2 2 16 3 5
15 18 16 17 19 15 0 1 4 2 2 3 1 7 5 5 3 3 2 2 4 3 0 3 2 2 2 1 4 6 3 4 5 3 4 4 9 16 17 13 4 6 11 11
6 10 16 19 22 15 1 1 2 2 1 0 4 3 2 4 2 1 3 2 2 4 2 4 3 4 2 5 2 4 1 3 4 1 2 7 12 13 15 13 12 7 11 9
4 6 10 16 24 16 2 3 2 3 3 1 3 0 2 2 3 2 2 2 3 4 4 4 5 5 4 3 4 1 1 3 2 3 3 2 10 13 11 11 11 7 10 6
3 6 9 12 19 15 3 2 2 2 1 2 3 2 4 3 1 1 2 6 4 3 3 6 6 5 3 3 1 3 1 3 4 3 5 3 3 7 7 4 11 6 8 7
4 6 7 10 12 9 2 1 2 3 1 3 2 1 1 2 2 3 2 5 5 3 5 7 7 8 7 6 4 5 3 4 2 4 6 2 2 6 1 6 9 10 10 10
7 5 5 9 11 6 3 1 1 2 3 2 3 3 2 4 2 0 1 3 3 5 4 3 4 3 4 7 6 4 2 3 2 1 2 3 3 3 1 3 4 9 8 10
9 6 3 6 8 13 4 1 1 1 2 3 8 2 2 3 4 2 3 2 1 3 2 2 3 2 3 2 2 6 5 6 2 1 1 1 3 4 1 4 1 5 8 9
13 10 7 6 6 10 6 2 6 1 1 2 4 1 2 4 4 1 2 3 3 1 2 2 2 2 1 2 3 1 2 2 2 2 1 2 5 4 1 1 0 4 5 7
13 13 13 8 6 8 5 1 9 4 1 2 2 0 0 3 3 2 2 2 1 3 2 2 2 1 0 2 3 2 2 0 2 1 1 3 5 3 2 4 4 4 3 5
9 12 14 10 6 4 5 2 1 7 2 2 1 1 1 3 2 3 2 2 2 1 2 2 2 3 2 2 3 1 2 4 2 3 3 4 3 5 4 5 6 2 4 3
7 9 11 8 6 5 2 2 2 3 2 2 2 3 5 4 4 3 2 0 5 3 2 1 2 3 2 2 4 2 4 3 2 3 4 7 7 5 5 5 6 6 4 4
7 9 10 13 10 8 5 1 0 3 3 2 2 1 2 4 4 3 2 3 4 3 2 2 2 2 1 3 3 2 2 4 5 4 6 5 7 8 8 5 6 6 5 4
7 9 13 17 20 16 6 3 3 2 1 3 1 3 2 2 3 4 4 3 3 2 2 2 3 1 1 3 2 5 6 7 5 5 9 6 7 10 10 9 7 7 6 4
6 8 13 2 14 16 3 2 1 4 1 2 3 3 3 2 4 4 5 4 2 1 2 3 3 2 0 3 4 7 9 7 7 3 5 4 7 10 8 8 8 6 6 6
5 5 7 12 15 4 2 1 0 2 1 2 3 2 3 4 3 2 1 2 2 2 2 3 2 2 3 3 5 6 7 9 6 7 8 5 7 6 8 7 8 6 6 6
5 4 6 10 11 4 2 1 1 4 1 1 3 2 2 6 3 3 2 3 3 3 3 0 2 1 3 6 12 7 6 8 8 8 3 5 8 9 8 7 7 7 6 6
4 8 14 4 2 2 1 2 4 1 1 2 2 2 2 2 1 1 1 2 3 2 3 4 4 4 7 10 7 9 8 9 8 8 6 7 9 9 8 7 7 6 6 6
14 4 1 1 0 5 7 0 1 2 3 3 3 2 1 3 2 2 2 2 2 2 4 2 4 6 13 11 11 8 11 10 11 10 9 8 8 10 8 7 7 6 6 6
1 3 2 1 6 1 0 2 3 3 3 4 4 5 4 3 3 2 3 2 2 2 3 3 3 4 5 15 21 10 11 12 14 5 7 8 11 11 8 8 7 7 7 5
6 6 4 2 2 2 4 4 3 5 5 4 4 3 3 2 1 2 1 2 2 6 2 1 4 5 5 3 6 9 12 12 12 8 10 9 10 9 9 8 7 6 6 6
3 2 3 3 3 7 7 8 4 4 4 4 3 2 3 2 1 2 2 4 5 2 3 5 5 6 2 3 1 7 9 10 11 9 9 10 9 9 9 9 7 7 6 6
2 5 6 7 6 7 6 6 4 3 3 7 5 2 3 3 3 3 4 4 1 4 4 6 4 6 6 6 5 7 9 10 11 12 12 11 11 9 8 7 6 7 6 5
4 5 7 9 5 3 3 2 3 0 7 8 3 2 2 3 3 4 2 3 6 6 5 5 3 3 7 7 6 8 9 10 10 9 10 10 9 8 7 6 6 6 6 6
3 7 5 2 6 2 1 2 2 2 6 2 2 3 3 5 4 4 9 6 7 5 4 3 1 2 3 4 5 7 8 9 10 9 9 9 9 9 8 6 5 5 6 5
6 5 7 2 2 4 3 3 3 6 7 3 3 6 10 1 3 5 6 6 4 2 2 2 2 4 5 6 7 8 8 8 8 8 8 7 7 8 7 7 5 5 5 4
Wind_Direction
85 73 100 114 74 360 325 18 51 345 317 20 301 63 39 257 89 127 102 329 354 8 120 343 119 258 208 343 314 307 159 301 281 259 132 304 301 347 342 346 357 342 345 18
69 69 60 21 2 340 331 33 321 249 262 36 83 126 101 58 57 53 8 44 339 358 15 317 168 204 171 291 302 2 332 263 313 3 283 319 12 1 3 339 268 24 4 6
55 52 53 32 9 358 231 233 342 332 290 295 26 122 113 112 32 69 12 356 268 283 302 138 291 1 116 145 283 321 258 283 62 29 303 315 7 18 7 18 2 5 23 8
38 36 24 13 354 352 196 304 5 5 279 331 68 23 123 121 118 51 330 209 333 355 320 316 76 350 59 152 257 321 339 309 358 120 110 57 42 22 18 16 18 32 346 12
307 5 26 17 355 355 122 337 345 254 358 285 154 3 141 175 127 325 105 318 348 356 49 11 334 347 27 56 303 197 248 309 268 262 237 193 54 20 15 14 2 11 10 35
282 341 360 23 19 6 27 332 265 259 49 256 273 77 125 167 138 146 353 330 297 23 21 337 331 306 279 247 333 308 229 307 334 285 317 322 40 23 10 4 16 349 18 21
341 337 344 11 42 47 12 9 285 299 96 269 336 126 93 199 100 352 74 332 326 25 291 282 244 249 243 258 218 196 288 281 241 280 305 37 171 125 305 55 27 8 28 15
334 336 358 359 356 9 103 338 32 15 327 313 49 291 195 72 182 209 311 66 356 319 291 300 307 216 229 199 193 246 240 278 290 138 76 171 177 149 243 331 23 15 27 9
327 314 329 356 11 343 318 349 229 332 330 32 331 218 245 224 217 163 146 152 305 306 318 320 294 303 352 314 243 178 239 230 222 305 158 124 125 134 296 297 180 16 21 22
346 328 287 304 359 356 345 344 309 148 345 39 352 31 290 332 323 43 126 168 165 16 297 283 259 320 83 274 296 52 280 292 270 354 3 108 129 129 111 293 237 47 32 39
342 330 325 277 314 341 356 24 326 312 199 140 192 47 64 337 298 305 105 116 237 148 259 280 272 261 353 315 230 219 262 207 211 62 250 260 148 131 238 152 103 131 62 55
335 337 328 263 278 322 340 298 2 321 317 349 319 329 153 168 129 308 306 336 339 342 253 338 315 274 212 282 282 53 268 197 195 182 194 125 158 113 110 143 143 147 109 5
322 323 331 313 258 280 277 321 353 271 249 206 255 200 165 189 183 117 318 111 10 342 85 309 292 288 35 263 240 336 234 130 223 37 158 170 178 148 152 158 136 132 112 108
307 313 307 299 259 245 203 248 58 273 292 279 222 209 218 139 166 182 184 292 292 292 290 257 252 257 57 282 269 231 215 125 210 240 166 166 188 176 162 130 117 120 116 102
296 305 307 297 270 235 197 249 223 263 302 301 310 150 150 168 200 184 200 204 283 271 269 225 234 249 359 249 328 244 181 189 177 219 184 170 188 172 159 153 167 160 149 134
270 307 317 303 125 133 140 297 175 212 215 288 290 143 177 206 203 187 186 215 189 249 258 262 281 97 293 274 252 248 211 200 205 212 140 115 131 142 139 153 158 144 140 110
265 315 347 164 149 130 162 220 114 189 44 274 289 221 147 182 189 166 177 164 231 176 257 235 251 177 179 255 242 242 223 185 150 120 101 98 133 158 161 145 120 124 114 114
231 289 327 177 129 96 273 236 184 156 243 248 272 251 199 170 204 201 198 187 181 217 237 211 206 174 215 254 242 234 193 159 156 168 153 162 147 131 140 127 134 155 162 137
182 111 109 101 78 160 233 155 146 353 230 248 189 233 243 168 226 96 195 244 214 164 229 222 158 208 221 232 211 210 189 180 173 159 152 141 144 143 146 144 155 161 146 133
146 147 147 134 133 121 120 57 198 178 233 232 232 171 205 182 167 222 185 209 244 233 230 156 225 250 238 245 220 218 186 170 157 142 169 165 161 157 156 160 157 135 118 113
142 159 114 95 125 53 214 236 214 175 231 205 214 178 155 235 162 200 227 219 248 266 248 171 252 262 237 225 228 195 179 171 182 169 164 158 155 152 151 142 128 120 116 108
143 111 101 129 178 196 213 201 190 219 229 179 160 195 124 158 152 144 200 248 9 253 141 203 267 252 253 219 231 186 165 159 157 157 154 153 146 143 135 134 131 124 117 111
95 86 134 174 170 217 214 187 199 210 189 167 156 135 126 107 183 144 180 185 230 328 232 232 232 266 198 245 165 133 144 139 145 132 121 115 113 109 125 123 119 121 119 115
161 160 208 202 199 214 203 207 175 199 124 144 136 108 146 149 165 162 188 218 128 247 245 242 244 252 178 164 152 139 148 137 129 129 126 123 123 117 115 120 128 128 125 119
194 191 222 217 224 194 173 152 106 131 138 142 93 66 128 168 187 205 140 181 251 216 231 226 271 211 158 160 158 146 140 134 132 132 132 132 130 129 119 121 120 117 124 122
222 221 219 250 184 171 156 156 129 166 152 77 86 148 146 233 186 167 213 172 219 247 227 259 7 158 149 151 143 131 132 132 132 128 132 132 134 137 134 120 114 117 119 115
221 195 202 200 138 207 169 146 172 160 152 187 159 189 210 113 196 222 189 206 225 233 302 282 247 179 169 152 131 131 129 128 130 128 130 127 125 123 126 132 150 138 138 143